Skip Page Navigation
NASA JPL Caltech
NASA Logo - Jet Propulsion Laboratory + View the NASA Portal
+ Near-Earth Object (NEO) Program
Search JPL
JPL Home Earth Solar System Stars & Galaxies Technology
JPL Solar System Dynamics
BODIES ORBITS EPHEMERIDES TOOLS PHYSICAL DATA DISCOVERY FAQ SITE MAP
JPL Small-Body Database Browser
Search: [ help ]  
(1999 XM141)
Classification: Apollo [NEO, PHA]          SPK-ID: 3025759
Ephemeris | Orbit Diagram | Orbital Elements | Physical Parameters | Close-Approach Data ]

[ hide orbit diagram ]
Orbit Diagram
Note: Make sure you have Java enabled on your browser to see the applet. This applet is provided as a 3D orbit visualization tool. The applet was implemented using 2-body methods, and hence should not be used for determining accurate long-term trajectories (over several years or decades) or planetary encounter circumstances. For accurate long-term ephemerides, please instead use our Horizons system.
Orbit Viewer

Additional Notes: the orbits shown in the applet are color coded. The planets are white lines, and the asteroid/comet is a blue line. The bright white line indicates the portion of the orbit that is above the ecliptic plane, and the darker portion is below the ecliptic plane. Likewise for the asteroid/comet orbit, the light blue indicates the portion above the ecliptic plane, and the dark blue the portion below the ecliptic plane.

Orbit Viewer applet originally written and kindly provided by Osamu Ajiki (AstroArts), and further modified by Ron Baalke (JPL).


Orbital Elements at Epoch 2456400.5 (2013-Apr-18.0) TDB
Reference: JPL 14 (heliocentric ecliptic J2000)
 Element Value Uncertainty (1-sigma)   Units 
e .369303956357182 5.4396e-06  
a 1.236326655744623 3.3042e-08 AU
q .7797463304282901 6.7063e-06 AU
i 21.62008047538079 0.00028332 deg
node 73.04745962582514 0.00014555 deg
peri 105.7257115896564 0.00089554 deg
M 206.4342276669485 0.0002105 deg
tp 2456614.685567719698
(2013-Nov-18.18556772)
0.000302 JED
period 502.109312561285
1.37
2.0129e-05
5.511e-08
d
yr
n .7169753497771666 2.8743e-08 deg/d
Q 1.692906981060956 4.5244e-08 AU
  Orbit Determination Parameters
   # obs. used (total)      89  
   data-arc span      4013 days (10.99 yr)  
   first obs. used      1999-12-13  
   last obs. used      2010-12-08  
   planetary ephem.      DE405  
   SB-pert. ephem.      SB405-CPV-2  
   condition code      0  
   fit RMS      .49515  
   data source      ORB  
   producer      Otto Matic  
   solution date      2011-Sep-14 19:36:39  

Additional Information
 Earth MOID = .0331825 AU 
 T_jup = 5.051 
[ show covariance matrix ]

Ephemeris | Orbit Diagram | Orbital Elements | Physical Parameters | Close-Approach Data ]

Physical Parameter Table
Parameter Symbol Value Units Sigma Reference Notes
absolute magnitude H 19.111 mag .70448 14 autocmod 2.5a

[ show close-approach data ]
Ephemeris | Orbit Diagram | Orbital Elements | Physical Parameters | Close-Approach Data ]
ABOUT SSD CREDITS/AWARDS PRIVACY/COPYRIGHT GLOSSARY LINKS
FirstGov 2013-Jun-20 07:16 UT
(server date/time)  
NASA Home Page
Site Manager:   Donald K. Yeomans
Webmaster  Alan B. Chamberlin